FW1140 Weather Reports


time (UTC)temp
C
wind
direction
speed
KPH
gust
KPH
rain 1hr
cm
rain 24hr
cm
rain mn
cm
humidity
%
barometer
mb
20260901154516 22 311 0.0 4.8 0.00 0.00 0.00 60 1011.3
20260901153039 22 338 3.2 8.0 0.00 0.00 0.00 60 1011.2
20260901151533 21 293 3.2 9.7 0.00 0.00 0.00 61 1011.2
20260901150012 21 1 3.2 8.0 0.00 0.00 0.00 61 1011.1
20260901144534 21 341 1.6 6.4 0.00 0.00 0.00 63 1011.5
20260901143022 21 358 0.0 4.8 0.00 0.00 0.00 65 1011.5
20260901141609 20 1 0.0 4.8 0.00 0.00 0.00 67 1011.5
20260901140014 20 1 0.0 3.2 0.00 0.00 0.00 67 1011.5
20260901134522 20 1 0.0 3.2 0.00 0.00 0.00 65 1011.5
20260901133042 21 296 0.0 4.8 0.00 0.00 0.00 66 1011.4
20260901131553 20 323 0.0 3.2 0.00 0.00 0.00 64 1011.2
20260901130011 20 290 0.0 3.2 0.00 0.00 0.00 66 1011.3
20260901124553 17 212 0.0 4.8 0.00 0.00 0.00 73 1011.1
20260901123051 16 302 0.0 1.6 0.00 0.00 0.00 76 1010.7
20260901121517 16 261 0.0 3.2 0.00 0.00 0.00 72 1010.5
20260901120005 16 219 1.6 8.0 0.00 0.00 0.00 76 1010.5
20260901114557 16 211 3.2 8.0 0.00 0.00 0.00 75 1010.3
20260901113046 17 245 1.6 4.8 0.00 0.00 0.00 72 1010.1
20260901111616 17 253 3.2 9.7 0.00 0.00 0.00 74 1010.1
20260901110046 17 255 3.2 9.7 0.00 0.00 0.00 72 1010.0
20260901104603 17 261 3.2 12.9 0.00 0.00 0.00 74 1010.0
20260901103008 17 252 4.8 9.7 0.00 0.00 0.00 74 1010.1
20260901101540 -17 0.0 0.0 0.00 0.00 0.00 1010.0
20260901100004 -17 0.0 0.0 0.00 0.00 0.00 1009.6
20260901094537 -17 0.0 0.0 0.00 0.00 0.00 1009.6
20260901093038 -17 0.0 0.0 0.00 0.00 0.00 1009.7
20260901091608 15 231 4.8 8.0 0.00 0.00 0.00 87 1009.8
20260901090030 16 240 4.8 8.0 0.00 0.00 0.00 87 1009.7
20260901084504 16 206 3.2 8.0 0.00 0.00 0.00 88 1009.4
20260901083102 15 233 1.6 4.8 0.00 0.00 0.00 88 1009.3
20260901081613 15 210 3.2 8.0 0.00 0.00 0.00 90 1009.4
20260901080100 15 215 3.2 4.8 0.00 0.00 0.00 89 1009.4
20260901074603 15 195 1.6 4.8 0.00 0.00 0.00 88 1009.3
20260901073018 16 172 1.6 8.0 0.00 0.00 0.00 88 1009.4
20260901071514 16 199 0.0 4.8 0.00 0.00 0.00 88 1009.3
20260901070026 16 212 1.6 6.4 0.00 0.00 0.00 87 1009.3
20260901064523 16 233 0.0 11.3 0.00 0.00 0.00 86 1009.4
20260901063026 16 204 1.6 6.4 0.00 0.00 0.00 86 1009.4
20260901061611 16 225 0.0 4.8 0.00 0.00 0.00 85 1009.6
20260901060005 16 243 1.6 4.8 0.00 0.00 0.00 84 1009.8
20260901054549 17 220 1.6 6.4 0.00 0.00 0.00 83 1009.7
20260901053121 17 236 3.2 8.0 0.00 0.00 0.00 83 1009.8
20260901051550 17 275 3.2 8.0 0.00 0.00 0.00 83 1009.9
20260901050006 17 212 1.6 4.8 0.00 0.00 0.00 83 1009.7
20260901044525 17 217 0.0 4.8 0.00 0.00 0.00 83 1009.8
20260901043022 18 39 0.0 8.0 0.00 0.00 0.00 79 1009.8
20260901041525 18 250 1.6 4.8 0.00 0.00 0.00 79 1009.5
20260901040028 18 250 1.6 6.4 0.00 0.00 0.00 76 1009.2
20260901034557 18 236 1.6 6.4 0.00 0.00 0.00 77 1009.0
20260901033055 20 240 4.8 11.3 0.00 0.00 0.00 74 1008.8
20260901031527 20 276 3.2 9.7 0.00 0.00 0.00 76 1008.8
20260901030013 18 233 1.6 6.4 0.00 0.00 0.00 81 1008.9
20260901024502 18 248 1.6 4.8 0.00 0.00 0.00 83 1008.9
20260901023029 18 238 0.0 4.8 0.00 0.00 0.00 82 1008.8
20260901021503 17 231 1.6 4.8 0.00 0.00 0.00 82 1008.6
20260901020006 18 236 0.0 3.2 0.00 0.00 0.00 82 1008.4
20260901014524 18 236 0.0 4.8 0.00 0.00 0.00 81 1008.2
20260901013025 19 259 1.6 4.8 0.00 0.00 0.00 79 1007.9
20260901011558 19 231 0.0 6.4 0.00 0.00 0.00 78 1007.9
20260901010013 20 233 1.6 4.8 0.00 0.00 0.00 74 1007.9
20260901004538 21 231 0.0 4.8 0.00 0.00 0.00 70 1007.8
20260901003044 22 201 0.0 4.8 0.00 0.00 0.00 67 1007.8
20260901001548 23 216 1.6 6.4 0.00 0.00 0.00 61 1007.8
20260901000037 25 186 0.0 4.8 0.00 0.00 0.00 56 1007.8
20260831234547 25 165 1.6 4.8 0.00 0.00 0.00 54 1007.7
20260831233105 -17 0.0 0.0 0.00 0.00 0.00 1008.1
20260831231533 -17 0.0 0.0 0.00 0.00 0.00 1008.1
20260831230104 -17 0.0 0.0 0.00 0.00 0.00 1008.1
20260831224558 -17 0.0 0.0 0.00 0.00 0.00 1008.0
20260831223025 -17 0.0 0.0 0.00 0.00 0.00 1008.0
20260831221519 29 216 1.6 11.3 0.00 0.00 0.00 42 1008.0
20260831220052 30 198 3.2 9.7 0.00 0.00 0.00 38 1007.9
20260831214509 29 236 3.2 9.7 0.00 0.00 0.00 38 1008.0
20260831213105 29 251 3.2 8.0 0.00 0.00 0.00 35 1007.9
20260831211525 30 269 3.2 9.7 0.00 0.00 0.00 36 1007.9
20260831210017 31 290 3.2 9.7 0.00 0.00 0.00 38 1008.0
20260831204555 31 273 3.2 11.3 0.00 0.00 0.00 38 1008.0
20260831203034 30 276 4.8 11.3 0.00 0.00 0.00 30 1008.1
20260831201517 30 203 4.8 12.9 0.00 0.00 0.00 38 1008.2
20260831200038 31 252 4.8 14.5 0.00 0.00 0.00 39 1008.2
20260831194523 31 259 4.8 16.1 0.00 0.00 0.00 37 1008.2
20260831193011 31 248 4.8 9.7 0.00 0.00 0.00 41 1008.2
20260831191535 31 257 1.6 9.7 0.00 0.00 0.00 44 1008.4
20260831190012 31 308 3.2 9.7 0.00 0.00 0.00 46 1008.4
20260831184504 30 350 3.2 9.7 0.00 0.00 0.00 47 1008.4
20260831183010 29 37 1.6 8.0 0.00 0.00 0.00 47 1008.3
20260831181509 30 57 3.2 8.0 0.00 0.00 0.00 47 1008.3
20260831180037 28 298 3.2 9.7 0.00 0.00 0.00 50 1008.4
20260831174550 28 330 1.6 8.0 0.00 0.00 0.00 48 1008.4
20260831173049 28 360 1.6 8.0 0.00 0.00 0.00 45 1008.6
20260831171526 27 311 1.6 8.0 0.00 0.00 0.00 49 1008.7
20260831170044 27 335 1.6 9.7 0.00 0.00 0.00 51 1008.8
20260831164505 26 290 4.8 9.7 0.00 0.00 0.00 49 1008.8
20260831163033 25 326 4.8 11.3 0.00 0.00 0.00 56 1008.7
20260831161550 23 345 3.2 11.3 0.00 0.00 0.00 60 1008.9
20260831160002 25 335 8.0 14.5 0.00 0.00 0.00 59 1008.9